Location: Audrecelles
(50.8240°N, 1.5923°E)
Time: 03:17:29
(UTC+00:00)

Cosmos 44 - Pass Details

Date: 13 October 2025
Orbit: 576 x 774 km, 65.1° (Epoch: 13 November)

Event Time Altitude Azimuth Distance (km) Brightness Sun altitude
Exits shadow 01:30:41 11° 24° (NNE) 2,045 6.3 -41.3°
Drops below altitude 10° 01:31:09 10° 28° (NNE) 2,169 6.5 -41.2°
Sets 01:34:07 0° 45° (NE) 3,107 7.5 -40.9°
